Weather History for NW Arkansas Airport, AR

Change the Weather History Date:

Thursday, February 10, 2011

  Actual Average Record
Temperature  
Mean Temperature 2 °F -  
Max Temperature 24 °F - - ()
Min Temperature -20 °F - - ()
Degree Days  
Heating Degree Days 63    
Moisture  
Dew Point -11 °F    
Average Humidity 77    
Maximum Humidity 100    
Minimum Humidity 29    
Precipitation  
Precipitation 0.00 in - - ()
Sea Level Pressure  
Sea Level Pressure 30.31 in    
Wind  
Wind Speed 2 mph (SSW)    
Max Wind Speed 8 mph    
Max Gust Speed -    
Visibility 4 miles    
Events Fog    
T = Trace of Precipitation, MM = Missing Value Source: NWS Daily Summary

Daily Weather History Graph

Daily Weather History Graph

Search for Another Location

Airport:

Trip Planner

Search our weather history database for the weather conditions in past years. The results will help you decide how hot, cold, wet, or windy it might be!

Date:

Astronomy

Feb. 10, 2011 Rise Set
Actual Time 7:10 AM CST 5:52 PM CST
Civil Twilight 6:43 AM CST 6:19 PM CST
Nautical Twilight 6:13 AM CST 6:49 PM CST
Astronomical Twilight 5:43 AM CST 7:19 PM CST
Moon 10:39 AM CST (2/10) 12:16 AM CST (2/10)
Length of Visible Light 11h 35m
Length of Day
10h 42m
Waxing Crescent, 45% of the Moon is Illuminated
Feb 10
Waxing Crescent
Feb 11
First Quarter
Feb 18
Full
Feb 24
Last Quarter
Mar 4
New

Hourly Weather History & Observations

Time (CST) Temp. Windchill Dew Point Humidity Pressure Visibility Wind Dir Wind Speed Gust Speed Precip Events Conditions
12:14 AM -4.0 °F - -7.6 °F 85% 30.32 in 1.8 mi Calm Calm - N/A   Clear
12:53 AM -5.1 °F -13.6 °F -6.0 °F 96% 30.42 in 3.0 mi West 3.5 mph - N/A   Clear
1:42 AM -9.4 °F - -9.4 °F 100% 30.33 in 1.8 mi Calm Calm - N/A   Clear
1:50 AM -9.4 °F - -13.0 °F 84% 30.32 in 3.0 mi Calm Calm - N/A   Clear
1:53 AM -9.9 °F - -13.0 °F 86% 30.40 in 7.0 mi Calm Calm - N/A   Clear
2:22 AM -5.8 °F - -9.4 °F 84% 30.32 in 1.8 mi Calm Calm - N/A   Clear
2:31 AM -7.6 °F - -9.4 °F 92% 30.32 in 0.8 mi Calm Calm - N/A   Clear
2:41 AM -7.6 °F - -11.2 °F 84% 30.32 in 0.2 mi Calm Calm - N/A Fog Light Freezing Fog
2:49 AM -9.4 °F - -11.2 °F 92% 30.32 in 0.5 mi Calm Calm - N/A Fog Light Freezing Fog
2:53 AM -11.0 °F - -13.0 °F 91% 30.40 in 0.5 mi Calm Calm - N/A Fog Light Freezing Fog
3:00 AM -11.2 °F -20.6 °F -14.8 °F 84% 30.32 in 0.2 mi South 3.5 mph - N/A Fog Light Freezing Fog
3:08 AM -9.4 °F -18.6 °F -13.0 °F 84% 30.31 in 0.8 mi South 3.5 mph - N/A   Clear
3:37 AM -9.4 °F -18.6 °F -14.8 °F 77% 30.30 in 0.2 mi SSE 3.5 mph - N/A Fog Light Freezing Fog
4:15 AM -11.2 °F - -16.6 °F 77% 30.29 in 1.0 mi Calm Calm - N/A   Haze
4:17 AM -9.4 °F - -14.8 °F 77% 30.29 in 3.0 mi Calm Calm - N/A   Haze
4:53 AM -13.0 °F - -17.0 °F 82% 30.37 in 7.0 mi Calm Calm - N/A   Clear
5:53 AM -16.1 °F - -20.0 °F 82% 30.39 in 4.0 mi Calm Calm - N/A   Clear
6:01 AM -16.6 °F - -20.2 °F 84% 30.30 in 2.5 mi Calm Calm - N/A   Clear
6:08 AM -18.4 °F -28.9 °F -22.0 °F 84% 30.30 in 6.0 mi South 3.5 mph - N/A   Clear
6:24 AM -20.2 °F -35.5 °F -25.6 °F 76% 30.31 in 2.5 mi SSW 5.8 mph - N/A   Haze
6:26 AM -20.2 °F -35.5 °F -25.6 °F 76% 30.31 in 0.8 mi SSW 5.8 mph - N/A   Haze
6:34 AM -20.2 °F -35.5 °F -23.8 °F 83% 30.31 in 0.2 mi SSW 5.8 mph - N/A Fog Light Freezing Fog
6:53 AM -14.1 °F -29.9 °F -18.0 °F 82% 30.40 in 0.2 mi SSW 6.9 mph - N/A Fog Light Freezing Fog
7:07 AM -14.8 °F - -18.4 °F 84% 30.31 in 0.5 mi Calm Calm - N/A Fog Light Freezing Fog
7:18 AM -14.8 °F - -16.6 °F 92% 30.30 in 0.2 mi Calm Calm - N/A Fog Light Freezing Fog
7:30 AM -14.8 °F -24.8 °F -18.4 °F 84% 30.29 in 0.2 mi East 3.5 mph - N/A Fog Light Freezing Fog
7:38 AM -14.8 °F -27.2 °F -18.4 °F 84% 30.28 in 0.2 mi ENE 4.6 mph - N/A Fog Light Freezing Fog
7:48 AM -13.0 °F - -16.6 °F 84% 30.29 in 1.0 mi Calm Calm - N/A   Mist
7:50 AM -13.0 °F - -16.6 °F 84% 30.29 in 2.5 mi Calm Calm - N/A   Partly Cloudy
7:53 AM -13.0 °F - -17.0 °F 82% 30.39 in 3.0 mi Calm Calm - N/A   Partly Cloudy
8:08 AM -14.8 °F -27.2 °F -16.6 °F 92% 30.29 in 1.8 mi South 4.6 mph - N/A   Mostly Cloudy
8:17 AM -11.2 °F -23.0 °F -13.0 °F 92% 30.29 in 0.2 mi South 4.6 mph - N/A Fog Light Freezing Fog
8:26 AM -11.2 °F -20.6 °F -13.0 °F 92% 30.29 in 0.2 mi SSE 3.5 mph - N/A Fog Light Freezing Fog
8:53 AM -8.0 °F - -9.0 °F 95% 30.38 in 0.2 mi Calm Calm - N/A Fog Light Freezing Fog
8:59 AM -5.8 °F - -7.6 °F 92% 30.29 in 1.2 mi Calm Calm - N/A   Scattered Clouds
9:09 AM -4.0 °F - -7.6 °F 85% 30.28 in 0.2 mi Calm Calm - N/A Fog Light Freezing Fog
9:14 AM -2.2 °F - -7.6 °F 78% 30.28 in 0.2 mi Calm Calm - N/A Fog Light Freezing Fog
9:21 AM -2.2 °F -12.5 °F -7.6 °F 78% 30.26 in 0.5 mi NE 4.6 mph - N/A   Haze
9:25 AM -2.2 °F -14.2 °F -7.6 °F 78% 30.25 in 2.0 mi NE 5.8 mph - N/A   Haze
9:32 AM -2.2 °F -14.2 °F -7.6 °F 78% 30.24 in 4.0 mi NNE 5.8 mph - N/A   Haze
9:53 AM -0.9 °F -8.9 °F -5.1 °F 83% 30.36 in 4.0 mi WNW 3.5 mph - N/A   Clear
10:53 AM 10.9 °F - 7.0 °F 84% 30.41 in 10.0 mi Calm Calm - 0.00 in   Clear
11:53 AM 15.1 °F 9.4 °F 1.0 °F 54% 30.40 in 10.0 mi WSW 3.5 mph - N/A   Clear
12:53 PM 19.9 °F 11.1 °F -2.0 °F 38% 30.35 in 10.0 mi SW 6.9 mph - N/A   Clear
1:53 PM 23.0 °F 17.0 °F 1.0 °F 39% 30.31 in 10.0 mi South 4.6 mph - N/A   Clear
2:53 PM 24.1 °F 15.2 °F -0.9 °F 34% 30.29 in 10.0 mi WSW 8.1 mph - N/A   Clear
3:53 PM 23.0 °F 14.7 °F 1.0 °F 39% 30.29 in 10.0 mi WSW 6.9 mph - N/A   Clear
4:53 PM 21.9 °F 12.5 °F -6.0 °F 29% 30.28 in 10.0 mi WSW 8.1 mph - N/A   Clear
5:53 PM 12.0 °F 5.9 °F -7.1 °F 42% 30.28 in 10.0 mi SW 3.5 mph - N/A   Clear
6:53 PM 8.1 °F - -7.1 °F 50% 30.28 in 10.0 mi Calm Calm - N/A   Clear
7:53 PM 10.9 °F 2.9 °F -4.0 °F 51% 30.28 in 10.0 mi WSW 4.6 mph - N/A   Clear
8:53 PM -2.0 °F - -9.0 °F 72% 30.28 in 10.0 mi Calm Calm - N/A   Clear
9:53 PM 1.0 °F -6.7 °F -8.0 °F 66% 30.27 in 10.0 mi South 3.5 mph - N/A   Clear
10:53 PM 1.0 °F -6.7 °F -7.1 °F 69% 30.26 in 10.0 mi South 3.5 mph - N/A   Clear
11:53 PM 3.9 °F -5.3 °F -5.1 °F 66% 30.25 in 10.0 mi SSW 4.6 mph - N/A   Clear